GFSNE_850_temp_336.txt.gz
Temp
9 9 9 9 10 10 9 9 9 7 6 4 4 3 3 2 1 2 0 0 1 0 -0 -1 -1 -1 -1 -1 -2 -2 -2 -2 -2 -3 -2 -3 -3 -6
9 9 9 10 10 10 10 9 9 8 7 5 5 5 2 2 1 -1 -0 -0 -0 -0 -1 -1 -1 -1 -1 -2 -2 -2 -2 -3 -3 -3 -3 -3 -3 -4
9 10 10 10 10 9 9 9 9 8 7 5 5 5 3 1 1 -1 -1 -1 -1 -1 -1 -1 -1 -1 -2 -2 -2 -3 -3 -3 -3 -3 -3 -3 -3 -3
10 10 10 10 9 9 9 9 9 7 7 6 4 3 3 3 1 -1 -1 -1 -1 -1 -1 -1 -2 -2 -2 -2 -3 -3 -3 -3 -3 -3 -3 -3 -3 -3
10 10 9 9 9 9 9 8 8 7 5 5 4 3 3 2 0 -1 -1 -1 -2 -2 -2 -2 -2 -3 -3 -2 -3 -3 -3 -3 -3 -3 -3 -3 -3 -3
10 9 9 9 9 8 8 8 8 7 6 4 3 3 2 2 2 -0 -0 -1 -2 -2 -2 -2 -3 -3 -3 -3 -3 -3 -3 -3 -3 -3 -3 -4 -4 -4
9 9 9 9 9 8 8 8 7 7 5 4 3 2 2 2 1 0 0 -1 -1 -1 -2 -2 -2 -3 -4 -4 -4 -3 -3 -3 -3 -3 -4 -4 -4 -4
9 9 9 8 8 8 8 7 7 6 5 3 3 2 2 2 2 1 0 -0 -2 -2 -1 -2 -3 -3 -4 -4 -4 -3 -3 -3 -3 -3 -4 -4 -4 -4
9 9 8 8 8 8 7 7 7 6 5 5 4 3 2 2 3 2 1 -0 -2 -3 -1 -2 -3 -3 -3 -3 -3 -3 -3 -3 -3 -3 -4 -4 -4 -4
9 9 8 8 8 7 7 7 6 6 6 5 5 5 4 4 3 3 1 0 -2 -2 -1 -1 -1 -1 -2 -3 -3 -2 -2 -3 -3 -3 -3 -4 -4 -5
8 8 8 8 8 7 7 7 6 6 6 5 5 5 4 4 3 2 2 1 -1 -2 0 -0 0 -0 -0 -1 -3 -3 -2 -2 -3 -3 -3 -4 -4 -4
7 7 7 8 7 7 7 7 6 7 6 5 5 5 4 4 3 2 2 2 1 1 0 -1 -0 -1 -1 -2 -2 -3 -3 -3 -2 -3 -3 -3 -4 -4
6 6 7 8 7 7 6 6 6 6 5 5 5 5 4 4 4 3 2 2 1 1 -0 -1 -1 -1 -1 -1 -1 -2 -3 -3 -4 -3 -3 -4 -4 -4
6 6 7 7 7 6 6 6 5 5 5 5 4 4 4 3 3 3 3 1 1 0 -1 -1 -1 -2 -3 -2 -2 -2 -4 -4 -5 -6 -5 -4 -4 -5
5 5 5 6 6 6 5 5 5 5 5 5 5 5 4 3 3 3 3 2 1 0 -1 -2 -2 -3 -4 -4 -3 -3 -5 -5 -4 -6 -6 -7 -6 -6
5 4 4 5 5 6 5 5 5 5 5 5 5 4 4 3 3 3 3 2 1 1 -1 -3 -3 -4 -4 -4 -5 -3 -6 -6 -5 -5 -6 -7 -5 -6
5 4 4 4 5 5 5 5 5 5 5 5 4 4 4 4 3 2 2 2 2 2 1 -1 -2 -3 -4 -4 -4 -3 -3 -5 -5 -5 -6 -5 -3 -5
5 5 4 5 5 6 6 6 6 5 5 5 4 4 4 4 3 2 2 2 2 2 1 -1 -3 -4 -4 -3 -2 -2 -3 -3 -4 -5 -4 -5 -2 -4
4 5 6 5 6 6 5 5 6 6 5 4 4 4 4 3 3 3 2 2 2 2 2 -0 -2 -3 -3 -2 -1 -3 -3 -3 -4 -4 -4 -4 -4 -3
5 5 5 5 5 5 5 5 5 5 5 4 4 4 4 4 3 3 3 2 2 2 2 1 0 -0 -1 -0 -2 -2 -4 -3 -4 -4 -3 -4 -4 -4
6 5 5 5 4 5 5 5 4 4 4 4 4 4 4 3 3 3 3 3 2 1 2 3 2 -0 -1 -2 -3 -0 -1 -3 -4 -4 -4 -4 -4 -4
6 6 6 5 4 4 4 4 4 4 4 4 4 4 3 3 3 3 3 2 2 2 2 2 1 0 -0 -1 -0 -1 -1 -2 -3 -4 -5 -5 -5 -5
7 6 6 5 5 4 3 3 3 4 3 3 3 3 3 3 3 2 2 2 2 1 2 1 1 0 0 -0 -0 -1 -1 -1 -2 -4 -3 -4 -4 -6

GFSNE_850_temp_339.txt.gz
Temp
10 9 10 10 10 10 9 9 9 7 5 4 4 4 4 4 4 2 2 1 1 1 1 0 -0 -0 -1 -1 -1 -1 -2 -2 -2 -2 -2 -2 -3 -5
9 9 9 9 10 9 9 9 8 8 7 6 5 4 4 4 3 3 2 1 0 1 0 -0 -1 -1 -1 -1 -2 -2 -2 -2 -2 -2 -2 -3 -3 -3
9 9 9 9 10 10 10 9 9 8 8 6 5 5 4 3 3 1 1 0 -0 -1 -1 -1 -1 -1 -1 -2 -2 -2 -2 -2 -2 -2 -3 -3 -3 -3
10 10 9 10 10 10 10 9 9 9 8 7 6 5 4 3 2 1 1 0 -1 -1 -1 -1 -2 -2 -2 -2 -2 -3 -2 -2 -3 -3 -3 -3 -3 -3
11 10 10 10 10 10 10 9 9 9 8 7 7 6 4 3 2 1 1 -0 -1 -1 -1 -2 -2 -2 -2 -2 -3 -3 -3 -3 -3 -3 -3 -3 -3 -3
10 10 10 10 10 10 9 9 8 8 7 7 6 5 4 3 2 1 -0 -1 -1 -1 -1 -1 -2 -3 -3 -2 -3 -3 -3 -3 -3 -3 -3 -3 -3 -3
10 10 10 10 9 9 9 9 8 7 7 6 5 5 4 3 3 2 0 -0 -1 -1 -1 -1 -2 -3 -3 -2 -3 -3 -3 -3 -3 -3 -4 -4 -4 -4
10 10 10 9 9 9 9 8 8 7 7 6 6 5 5 4 3 2 1 0 -0 0 -0 -2 -2 -2 -2 -2 -2 -3 -3 -3 -3 -3 -3 -4 -4 -4
10 10 10 9 9 9 8 8 7 7 6 6 6 6 5 5 4 3 2 2 1 0 -0 -1 -1 -2 -2 -2 -3 -2 -2 -2 -3 -3 -3 -3 -4 -4
10 9 9 9 9 8 8 7 7 7 7 6 6 6 5 5 4 3 3 2 1 1 -0 -0 -0 -1 -2 -2 -2 -1 -1 -2 -2 -3 -3 -3 -4 -4
9 9 9 8 8 8 8 7 7 7 7 6 6 6 5 5 5 4 3 2 1 1 2 1 1 1 1 -0 -0 -1 -1 -1 -1 -2 -3 -3 -3 -4
9 9 8 8 8 8 8 7 7 7 7 6 6 6 5 5 5 4 3 3 2 1 2 1 1 1 1 1 1 -0 -1 -1 -1 -1 -2 -3 -3 -3
9 9 9 8 8 7 7 7 7 6 6 6 6 6 5 5 5 4 4 3 3 2 2 1 1 1 1 1 1 -1 -1 -1 -1 -1 -1 -2 -2 -3
8 9 8 8 8 7 7 7 7 7 6 6 6 6 5 5 5 4 4 4 3 3 2 1 1 -0 -0 0 1 -1 -1 -2 -1 -1 -3 -3 -4 -3
7 7 7 7 7 6 6 6 6 6 6 6 6 6 5 4 4 4 4 4 3 3 2 1 0 -1 -1 -1 -1 0 -2 -1 -2 -2 -4 -5 -5 -4
6 5 5 5 5 5 5 5 5 5 5 5 5 4 4 4 4 4 4 3 3 3 3 1 0 -1 -1 -2 -2 -0 -2 -4 -3 -3 -4 -3 -3 -3
5 5 4 4 4 5 5 5 5 5 5 5 5 5 4 4 4 4 3 3 3 4 3 2 1 -1 -2 -2 -2 -1 -1 -1 -2 -3 -4 -2 -1 -3
5 5 4 5 5 5 6 6 6 6 5 4 4 4 4 4 4 3 3 3 3 3 3 2 0 -1 -1 -1 -1 -0 -0 0 -1 -2 -3 -3 -1 -1
5 5 5 5 5 5 5 5 6 6 5 4 4 4 4 4 3 3 3 3 3 3 3 2 -0 -0 -1 1 1 0 -1 -1 -1 -0 -1 -2 -1 0
5 5 6 6 5 5 5 5 5 5 4 4 4 4 4 4 3 4 3 3 3 3 3 2 1 1 1 1 -0 0 -0 -0 -1 -0 -1 -1 -1 -1
6 6 6 6 6 6 5 5 5 4 4 4 4 4 4 3 3 3 3 3 2 2 2 3 4 1 -1 -2 -0 3 3 1 -0 -1 -1 -2 -1 -1
6 6 6 7 6 6 6 5 4 4 4 4 4 4 4 3 3 3 3 2 2 2 2 2 2 1 -1 -1 1 2 2 2 1 -0 -1 -2 -2 -2
6 6 6 6 5 5 5 5 5 5 4 4 3 3 3 3 3 2 2 2 2 1 1 1 1 0 -0 -1 0 1 1 2 1 1 1 -1 -1 -1

GFSNE_850_temp_345.txt.gz
Temp
10 9 9 9 9 9 9 9 9 9 8 7 6 6 5 4 3 3 2 2 2 1 1 1 1 0 0 -0 -0 -1 -1 -1 -1 -1 -1 -1 -2 -2
10 9 9 9 9 9 9 9 9 9 8 8 7 6 5 4 3 3 2 2 1 1 0 0 0 0 -0 -0 -0 -0 -1 -1 -1 -1 -1 -2 -2 -2
10 9 9 9 9 9 9 9 9 8 8 8 7 6 5 5 4 3 2 2 1 0 -0 -0 -1 -0 -0 -1 -1 -1 -1 -1 -1 -1 -2 -2 -2 -2
10 9 9 9 9 9 9 9 9 8 8 7 7 7 6 5 4 3 2 1 1 0 -0 -1 -1 -1 -1 -1 -1 -1 -1 -1 -2 -2 -2 -2 -2 -2
9 9 9 9 9 9 9 9 9 8 8 7 7 7 6 6 5 4 3 2 1 0 -0 -1 -1 -1 -1 -2 -1 -1 -1 -1 -2 -2 -2 -2 -2 -2
9 9 9 9 9 9 9 9 9 8 8 8 8 7 6 6 5 4 4 3 2 1 0 -0 -1 -1 -1 -1 -1 -1 -1 -1 -1 -1 -2 -2 -2 -2
9 9 9 9 9 9 9 9 9 9 8 8 8 8 7 7 7 5 4 3 2 1 1 1 -0 -0 0 -0 -1 -1 -1 -0 -1 -1 -1 -2 -2 -2
10 10 10 10 9 9 9 9 8 8 8 8 8 8 7 6 5 5 4 3 3 3 2 2 1 1 1 1 -0 -1 -0 0 -0 -1 -1 -2 -2 -2
11 11 10 10 9 9 9 9 8 8 8 7 7 7 6 6 5 5 4 4 4 3 2 2 2 2 2 1 0 0 0 0 -0 -1 -1 -1 -1 -1
11 11 10 10 9 9 9 9 8 8 8 7 7 7 6 5 5 4 4 4 4 3 3 2 3 3 2 2 1 1 0 0 1 0 -1 -1 -1 -1
10 10 10 9 9 9 9 8 8 8 8 7 7 7 6 5 5 4 5 4 4 4 3 2 3 3 3 3 3 2 2 1 1 0 0 -0 -0 -1
10 10 9 9 8 8 8 8 8 8 8 7 7 6 6 6 5 5 4 4 4 3 3 2 3 2 2 4 3 3 2 1 1 -0 -1 -1 -1 -0
10 10 9 9 8 8 8 7 7 6 6 6 6 6 6 6 5 5 5 4 4 4 2 2 2 2 1 2 2 2 2 1 0 -1 -1 -2 -2 -2
9 9 9 8 8 8 7 7 6 6 5 5 6 6 6 6 5 5 4 4 4 4 3 2 2 2 1 1 2 2 1 0 -0 -0 -1 -1 -1 -2
9 8 8 7 7 7 7 6 5 5 5 6 6 6 6 5 4 4 4 4 4 4 3 3 2 1 1 2 2 2 2 2 1 1 0 -1 -2 -2
8 7 6 6 6 6 6 6 5 5 5 6 6 5 5 4 4 4 4 3 3 4 3 2 2 1 1 1 0 2 2 1 2 1 0 -1 -1 -1
7 6 6 6 6 6 6 5 5 4 5 5 5 5 4 4 4 3 3 3 3 4 4 3 2 1 0 -0 1 2 3 3 3 2 1 1 0 1
6 6 6 6 6 6 6 6 5 5 5 5 5 4 4 4 4 3 3 3 3 4 4 4 2 0 -0 1 0 2 2 3 3 2 1 1 3 2
5 6 6 6 6 6 6 5 5 5 5 5 4 4 4 4 3 3 3 2 3 3 3 3 2 1 -0 0 3 2 1 2 1 2 2 1 1 3
5 5 6 6 6 6 6 6 5 5 5 4 4 4 4 4 3 3 3 3 2 2 2 2 2 2 1 1 0 1 -0 1 1 2 2 2 1 2
6 5 6 6 6 6 6 6 5 5 5 4 4 4 4 3 3 3 3 2 2 2 2 3 3 2 1 -0 -1 2 2 2 1 0 1 1 1 2
6 5 5 5 5 5 5 5 5 4 4 4 4 4 3 3 3 3 2 2 2 2 2 2 1 1 0 -0 -0 -0 1 2 1 1 0 0 -0 -0
6 5 5 4 4 4 4 4 4 4 4 4 4 3 3 2 3 2 2 1 1 1 1 1 1 0 0 -0 -0 -0 -0 1 1 1 1 1 0 -0

GFSNE_850_temp_348.txt.gz
Temp
9 9 9 9 9 9 9 9 9 9 9 9 7 7 6 5 5 4 4 3 3 2 2 2 1 1 1 1 1 1 1 0 0 -0 -0 -1 -1 -1
9 9 9 9 9 9 9 9 9 9 8 8 8 7 6 5 5 4 3 3 2 2 2 2 1 1 1 1 1 1 1 0 0 0 -0 -1 -1 -1
9 9 9 9 9 9 9 9 9 9 8 8 8 7 6 5 5 4 3 3 2 1 1 1 1 1 0 0 1 1 1 0 0 0 -0 -1 -1 -2
9 9 9 9 9 8 8 8 8 8 8 8 8 7 7 6 5 4 4 3 2 1 1 1 1 -0 -0 -0 0 0 0 0 0 0 -0 -1 -1 -2
9 9 9 9 9 8 8 8 8 8 9 8 7 7 6 6 6 5 4 4 3 2 1 1 0 0 -0 -1 -0 0 0 -0 -0 0 -0 -0 -1 -1
9 9 9 9 9 8 8 8 8 8 8 8 8 7 7 6 5 5 5 4 3 2 2 1 1 1 0 -0 -0 0 0 -0 -0 -0 -0 -0 -1 -1
9 9 9 9 8 8 8 8 9 9 9 8 8 8 8 7 7 6 5 4 4 3 2 2 1 1 1 1 0 -0 -0 -0 -0 -0 -1 -1 -1 -1
9 9 9 9 8 8 9 9 9 9 9 8 8 8 8 8 7 6 5 5 4 4 3 3 2 2 2 1 1 0 -0 0 0 0 -0 -1 -1 -0
10 9 9 9 9 9 8 9 9 9 9 8 8 8 7 7 6 6 5 5 5 3 2 3 2 3 2 2 2 2 1 1 1 1 1 0 -0 -0
10 9 9 9 9 9 9 9 9 9 9 8 8 8 7 6 6 5 4 4 4 4 3 3 4 4 3 3 3 2 2 2 1 1 1 1 0 -0
10 10 9 9 9 9 9 8 9 9 8 8 8 7 7 6 5 5 5 5 5 5 3 3 5 4 4 4 4 4 3 3 2 2 2 2 1 1
10 10 9 9 9 8 8 8 8 8 8 8 7 7 7 6 6 5 5 5 4 4 4 3 4 3 3 5 4 4 4 3 2 2 1 1 0 0
10 10 10 9 9 8 8 9 8 7 7 7 6 6 6 6 6 5 5 5 4 4 3 2 3 3 2 3 4 4 3 3 2 2 1 1 0 -1
11 10 9 9 8 8 8 8 7 6 6 6 6 6 6 6 5 5 4 4 4 4 3 3 3 3 2 2 4 4 3 2 2 2 1 0 -0 -0
10 9 9 8 8 7 7 7 6 6 6 6 6 7 6 5 4 4 4 4 4 4 4 3 3 2 1 2 2 3 3 3 3 3 2 1 1 -0
9 8 7 7 6 6 6 6 6 6 6 6 6 6 5 5 5 4 4 4 4 4 4 3 3 2 2 2 1 2 2 2 3 2 2 1 1 1
8 6 6 6 6 6 6 6 6 5 6 6 6 6 5 5 4 4 4 3 3 4 4 3 2 1 1 1 1 2 2 3 4 3 1 2 2 2
6 6 6 6 6 6 6 6 6 6 6 5 5 5 5 5 4 3 3 3 3 3 4 3 2 1 0 2 2 3 3 3 3 2 2 1 3 3
4 5 5 6 6 6 6 6 6 6 5 5 5 5 5 4 4 4 3 2 2 3 3 3 2 1 -1 -0 3 3 2 2 1 1 2 2 2 3
4 5 5 5 5 5 5 6 6 5 5 5 4 4 4 4 4 4 3 3 3 3 3 2 2 2 1 2 0 1 1 2 2 1 1 1 1 2
4 4 5 5 5 5 5 5 5 4 4 4 4 4 4 4 3 3 3 3 3 2 2 2 3 2 1 -0 -1 1 2 1 1 0 -0 -1 -1 -0
5 4 5 5 5 5 5 4 4 4 4 3 3 3 3 3 3 3 3 3 2 2 2 2 1 1 0 -0 -0 -0 0 1 1 0 -0 -0 -1 -2
4 4 5 5 4 4 4 4 3 3 3 3 3 3 2 2 2 1 1 1 1 1 1 1 1 1 0 0 -0 0 -0 -1 -1 -0 0 1 1 0